Welcome to the New NWS' Forecast!
Most changes are behind the scenes, but click here for differences you might notice.
Latest weather observations around

South Lake Tahoe, Lake Tahoe Airport (KTVL)

Using English Units (Switch to International System of Units)
Date/ Time (PST) Wind (mph) Vis. (mi) Weather Sky Cond. Temp (°F) Rel. Humidity Wind Chill (°F) Heat Index (°F) Pressure Precip. (in)
Air Dwpt 6 hour Altimeter (inHg) Sea level (inHg) 1 hr 3 hr 6 hr
Max Min
Jan 21 07:53 Calm 10 Clear CLR 12 8     84%       30.4      
Jan 21 06:53 SSW 3 10 Clear CLR 11 8     88% 5     30.37      
Jan 21 05:53 SSW 3 10 Mostly Cloudy BKN110 14 9     80% 8     30.34      
Jan 21 04:53 SSW 3 10 Partly Cloudy SCT120 12 8     84% 6     30.32      
Jan 21 03:53 S 3 10 Clear CLR 11 7     84% 5     30.31      
Jan 21 02:53 SSW 3 10 Clear CLR 11 7     84% 5     30.29      
Jan 21 01:53 S 3 10 Clear CLR 11 8     88% 5     30.28      
Jan 21 00:53 S 3 10 Clear CLR 11 8     88% 5     30.27      
Jan 20 23:53 S 3 10 Clear CLR 12 9     87% 6     30.26      
Jan 20 22:53 S 5 10 Clear CLR 14 10     84% 6     30.25      
Jan 20 21:53 SSW 5 10 Mostly Clear FEW032 17 13     83% 10     30.24      
Jan 20 20:53 SSW 3 10 Partly Cloudy SCT037 19 15     84% 14     30.25      
Jan 20 19:53 Calm 10 Mostly Clear FEW038 18 15     88%       30.25      
Jan 20 18:53 SSW 3 10 Clear CLR 20 17     88% 15     30.21      
Jan 20 17:53 Calm 10 Clear CLR 22 18     84%       30.18      
Jan 20 16:53 Calm 10 Clear CLR 26 19     74%       30.14      
Jan 20 15:53 Calm 10 Clear CLR 28 19     69%       30.1      
Jan 20 14:53 NNE 3 10 Clear CLR 32 12     43% 29     30.06      
Jan 20 13:53 5 10 Clear CLR 32 12     43% 27     30.06      
Jan 20 12:53   10 Clear CLR 32 13     45%       30.04      
Jan 20 11:53 NNE 6 10 Clear CLR 31        % 25     30.06      
Jan 20 10:53 NE 6 10 Clear CLR 30 15     53% 24     30.07      
Jan 20 09:53 Calm 10 Clear CLR 26 17     68%       30.08     0
Jan 20 08:53 Calm 10 Clear CLR 18 17     96%       30.1      
Jan 20 07:53 Calm 10 Clear CLR 15 13     91%       30.09      
Jan 20 06:53 SW 3 10 Mostly Cloudy BKN038 19 16     88% 14     30.05   0  
Jan 20 05:08 Calm 10 Mostly Cloudy SCT024 BKN035 21 17     84%              
Jan 20 04:53 Calm 9 Mostly Cloudy BKN024 BKN035 BKN043 20 18     92%       30.01 0    
Jan 20 04:16 S 3 5 Light Snow and Fog/Mist OVC020 22 19     88% 17       0    
Jan 20 04:05 Calm 4 Light Snow and Fog/Mist OVC021 23 20     88%         0    
Jan 20 03:53 SSW 3 7 Light Snow BKN021 OVC026 22 19     88% 17     29.98 0   0
Notice The following observation data may not be complete
Jan 20 03:18   10 Cloudy BKN022 BKN029 OVC043          %              
Jan 20 03:10 SSW 5 10 Cloudy SCT022 BKN030 OVC041 22 19     88% 16            
Jan 20 02:53 Calm 10 Cloudy FEW020 BKN027 OVC034 22 19     88%       29.98      
Jan 20 01:53 S 3 10 Cloudy FEW022 SCT026 OVC034 22 19     88% 17     29.97      
Jan 20 01:51 S 5 10 Cloudy FEW022 SCT026 OVC034 21 19     93% 15            
Jan 20 00:53 S 3 10 Cloudy OVC028 21 18     88% 16     29.98      
Jan 20 00:10 S 5 10 Mostly Cloudy BKN022 BKN032 21 18     88% 15            
Jan 19 23:53 S 5 10 Mostly Cloudy FEW026 BKN037 21 18     88% 15     29.99      
Jan 19 23:13 S 5 10 Cloudy FEW023 SCT029 OVC039 23 20     88% 17            
Jan 19 23:00 Calm 10 Cloudy BKN022 BKN029 OVC041 24 20     84%              
Jan 19 22:53 S 5 10 Cloudy SCT022 BKN039 OVC047 23 19     85% 17     29.98      
Jan 19 22:50 S 6 10 Cloudy FEW022 BKN039 OVC047 23 19     86% 16            
Jan 19 21:53 S 7 9 Cloudy SCT023 BKN029 OVC036 24 21     88% 16     29.98 0   0
Jan 19 21:44 SSE 3 7 Light Snow BKN026 OVC036 24 21     88% 20       0    
Jan 19 21:23 Calm 3 Light Snow and Fog/Mist BKN026 BKN031 OVC041 24 21     88%         0    
Jan 19 20:53 S 5 10 Cloudy OVC039 24 21     88% 18     29.98      
Jan 19 19:53 S 3 10 Cloudy FEW037 BKN048 OVC060 23 21     92% 19     29.97      
Jan 19 18:53 Calm 10 Mostly Cloudy BKN110 25 22     88%       29.96      
Jan 19 17:53 Calm 10 Mostly Clear FEW120 26 23     88%       29.96      
Jan 19 16:53 Calm 10 Mostly Clear FEW045 27 24     89%       29.95      
Jan 19 15:53 Calm 10 Mostly Clear FEW050 29 23     78%       29.94      
Jan 19 14:53 S 8 10 Clear CLR 32 21     64% 25     29.92      
Jan 19 13:53 6 10 Clear CLR 33 15     47% 28     29.92      
Jan 19 12:53 S 6 10 Clear CLR 32 18     56% 26     29.94      
Jan 19 11:53 S 8 10 Clear CLR 31 17     56% 23     29.96      
Jan 19 10:53 S 3 10 Clear CLR 29 18     63% 25     30      
Jan 19 09:53 SSW 5 10 Clear CLR 28 20     71% 23     30     0
Jan 19 08:53 SSW 6 10 Clear CLR 26 22     84% 19     29.97      
Jan 19 06:53 SSE 7 10 Clear CLR 27 22     81% 19     29.94 0 0  
Jan 19 05:53 SSE 5 7 Light Snow BKN030 BKN070 OVC085 27 23     85% 21     29.92 0    
Jan 19 05:49 S 6 5 Light Snow and Fog/Mist BKN030 OVC070 27 25     93% 20       0    
Jan 19 05:48 S 6 4 Light Snow and Fog/Mist BKN030 OVC070 27 25     93% 20       0    
Jan 19 05:32 S 6 2 Light Snow and Fog/Mist OVC018 27 25     92% 20       0    
Jan 19 04:53 S 8 1.75 Light Snow and Fog/Mist OVC019 28 25     88% 20     29.93 0    
Jan 19 04:34 S 7 2.5 Light Snow and Fog/Mist OVC019 28 25     88% 21       0    
Jan 19 04:06 S 9 1.75 Light Snow and Fog/Mist OVC021 29 25     85% 20       0    
Jan 19 03:53 S 10 2.5 Light Snow and Fog/Mist OVC023 29 25     85% 20     29.91 0   0
Jan 19 03:42 SSW 8 3 Light Snow and Fog/Mist OVC025 30 26     85% 22       0    
Jan 19 03:34 SSW 7 2.5 Light Snow and Fog/Mist OVC025 30 27     88% 23       0    
Jan 19 03:20 SSW 7 2.5 Light Snow and Fog/Mist OVC034 30 27     88% 23       0    
Jan 19 02:58 S 6 3 Light Snow and Fog/Mist OVC032 30 28     92% 24       0    
Jan 19 02:53 S 9 2 Light Snow and Fog/Mist OVC026 30 28     92% 22     29.87 0    
Jan 19 02:22 S 6 1.75 Light Snow and Fog/Mist OVC028 30 29     96% 24       0    
Jan 19 02:08 S 9 2 Light Snow and Fog/Mist OVC030 30 28     92% 22       0    
Jan 19 01:53 S 10 1 Light Snow and Fog/Mist VV016 30 29     96% 21     29.88 0    
Jan 19 01:49 S 10 1 Light Snow and Fog/Mist VV011 30 28     93% 21       0    
Jan 19 01:41 S 10 0.75 Light Snow and Fog/Mist VV009 30 29     96% 21       0    
Jan 19 01:33 S 9 0.75 Light Snow and Fog/Mist VV011 31 29     92% 23       0    
Jan 19 01:13 S 9 1 Light Snow and Fog/Mist FEW007 OVC013 31 30     96% 23       0    
Jan 19 01:06 S 11 1 Light Snow and Fog/Mist VV010 32 30     92% 23       0    
Jan 19 00:12 S 13 0.75 Light Snow and Fog/Mist VV008 32 31     96% 22       0    
Jan 19 00:02 S 9 1 Light Snow and Fog/Mist VV008 32 31     96% 24       0    
Jan 18 23:53 S 10 0.75 Light Snow and Fog/Mist VV007 32 31     96% 24     29.87 0    
Jan 18 23:20 S 10 0.5 Snow and Fog VV007 33 32     96% 25       0    
Jan 18 22:53 S 11 1 Light Snow and Fog/Mist VV008 33 32     96% 24     29.87 0    
Jan 18 22:46 SSW 10 1 Light Snow and Fog/Mist VV009 33 32     96% 25       0    
Jan 18 22:34 S 15 1.75 Light Snow and Fog/Mist OVC014 34 32     92% 24       0    
Jan 18 22:12 S 5 4 Light Snow and Fog/Mist FEW010 OVC015 34 33     96% 30       0    
Jan 18 21:53 S 10 2.5 Light Snow and Fog/Mist BKN013 OVC021 35 32     88% 27     29.85 0   0
Jan 18 21:48 SSW 8 3 Light Snow and Fog/Mist FEW010 BKN015 OVC023 36 34     93% 29       0    
Jan 18 21:37 S 11 6 Light Rain and Fog/Mist BKN019 OVC025 37 34     89% 29       0    
Jan 18 21:04 SW 8 3 Rain OVC020 39 34     82% 33       0    
Jan 18 19:53   10 Cloudy FEW034 BKN060 OVC095 42 29     59%       29.82 0    
Jan 18 19:28 SSW 17 10 Cloudy SCT027 BKN034 OVC060 42 32     67% 34       0    
Jan 18 18:53 S 13 10 Light Rain BKN025 OVC034 42 33     70% 35     29.84 0 0  
Jan 18 17:53 SSW 17 10 Cloudy OVC038 44 31     60% 36     29.86      
Jan 18 16:53 SSW 17 10 Cloudy BKN034 BKN046 OVC055 44 32     62% 36     29.88 0    
Jan 18 15:53 SSW 14 10 Cloudy BKN041 OVC050 46 33     60% 40     29.88      
Jan 18 14:53 SSW 10 10 Partly Cloudy FEW050 SCT080 SCT090 49 30     48% 45     29.88      
Jan 18 13:53 SSW 21 10 Mostly Clear and Windy FEW040 49 31     50% 42     29.91      
Jan 18 12:53   10 Mostly Cloudy FEW045 SCT095 BKN120 50 33     52%       29.9      
Jan 18 11:53   10 Mostly Cloudy BKN040 49 34     56%       29.93      
Jan 18 10:53 SSW 10 10 Cloudy OVC043 49 33     54% 45     30      
Jan 18 09:53   10 Mostly Cloudy BKN044 BKN050 50 34     54%       30.03      
Jan 18 08:53 S 13 10 Partly Cloudy SCT047 48 33     56% 43     30.05      
Jun 11 19:53 3 10 Clear   35 30     82% 32     29.86 0 0  
Jun 11 18:53 S 9 10 Mostly Cloudy FEW035 BKN045 BKN055 38 26     62% 31     29.84 0    
Jun 11 17:53 S 14 10 Cloudy BKN025 BKN030 OVC045 38 29     70% 30   29.9 29.84 0    
Jun 11 09:53 S 15 10 Mostly Cloudy BKN045 BKN055 46 27     47% 40     29.71      
Jun 10 20:53 S 11 10 Mostly Cloudy SCT029 BKN037 45 33     63% 39     29.79      
Jun 10 16:53 S 18 10 Clear CLR 54 26     34%       29.79      
Jun 09 11:53   5 Light Rain SCT030 BKN037 OVC048 53 48     83%       29.83 0    
Jun 09 09:53   10 Mostly Cloudy SCT036 BKN045 54 40     59%       29.83      
Jun 08 04:53   10 Partly Cloudy SCT110 53 28     38%       29.83      
Jun 07 22:53 SSW 3 10 Clear CLR 54 27     35%       29.9      
Jun 07 09:53   10 Clear CLR 66 37     34%       29.93      
Jun 05 19:53 Calm 10 Clear   61 38     42%       30